This is the latest recevied weather packets stored in our database for station/object W4OA. If no packets are shown the sender has not sent any weather packets the latest 10 day(s).
| Time | Temp. | Humidity | Pressure | Rain* | Wind** | Luminosity | Snow |
|---|---|---|---|---|---|---|---|
| 1777745998 | 20° C | 50% | 1007 hPa | 0 mm | - | 0 W/m² | - |
| 1777745699 | 20.56° C | 50% | 1007 hPa | 0 mm | - | 0 W/m² | - |
| 1777745398 | 20.56° C | 50% | 1007 hPa | 0 mm | - | 0 W/m² | - |
| 1777745099 | 20° C | 51% | 1007 hPa | 0 mm | - | 0 W/m² | - |
| 1777744798 | 20° C | 52% | 1007 hPa | 0 mm | - | 0 W/m² | - |
| 1777744498 | 20° C | 53% | 1007 hPa | 0 mm | - | 0 W/m² | - |
| 1777744198 | 19.44° C | 53% | 1007 hPa | 0 mm | - | 0 W/m² | - |
| 1777743898 | 20° C | 55% | 1007 hPa | 0 mm | - | 0 W/m² | - |
| 1777743298 | 19.44° C | 54% | 1007 hPa | 0 mm | - | 0 W/m² | - |
| 1777742399 | 18.89° C | 54% | 1007 hPa | 0 mm | - | 0 W/m² | - |
| 1777742098 | 18.89° C | 58% | 1007 hPa | 0 mm | - | 0 W/m² | - |
| 1777741798 | 18.89° C | 55% | 1007 hPa | 0 mm | - | 0 W/m² | - |
| 1777741199 | 18.33° C | 56% | 1007 hPa | 0 mm | - | 0 W/m² | - |
| 1777740598 | 18.33° C | 55% | 1007 hPa | 0 mm | - | 0 W/m² | - |
| 1777740301 | 18.33° C | 58% | 1007 hPa | 0 mm | - | 0 W/m² | - |
| 1777739998 | 17.78° C | 62% | 1007 hPa | 0 mm | - | 0 W/m² | - |
| 1777739698 | 17.78° C | 62% | 1007 hPa | 0 mm | - | 0 W/m² | - |
| 1777739398 | 17.78° C | 61% | 1007 hPa | 0 mm | - | 0 W/m² | - |
| 1777739099 | 17.22° C | 63% | 1007 hPa | 0 mm | - | 0 W/m² | - |
| 1777738798 | 17.22° C | 64% | 1007 hPa | 0 mm | - | 0 W/m² | - |
| 1777738198 | 17.22° C | 68% | 1007 hPa | 0 mm | - | 0 W/m² | - |
| 1777737898 | 17.22° C | 69% | 1007 hPa | 0 mm | - | 0 W/m² | - |
| 1777737598 | 16.67° C | 69% | 1007 hPa | 0 mm | - | 0 W/m² | - |
| 1777736998 | 16.67° C | 76% | 1007 hPa | 0 mm | - | 0 W/m² | - |
| 1777736698 | 16.11° C | 74% | 1007 hPa | 0 mm | - | 0 W/m² | - |
* Rain latest hour (hover to see other rain measurements)
** Current wind speed in m/s (hover to see current wind gust speed)